Weather History for Albany, GA

Change the Weather History Date:

Wednesday, January 23, 2013

  Actual Average Record
Temperature  
Mean Temperature 45 °F 50 °F  
Max Temperature 61 °F 61 °F 80 °F (1937)
Min Temperature 29 °F 38 °F 12 °F (1985)
Degree Days  
Heating Degree Days 20 16  
Month to date heating degree days 214 368  
Since 1 July heating degree days 866 1081  
Cooling Degree Days 0 0  
Month to date cooling degree days 25 0  
Year to date cooling degree days 25 0  
Moisture  
Dew Point 31 °F    
Average Humidity 61    
Maximum Humidity 85    
Minimum Humidity 37    
Precipitation  
Precipitation 0.00 in 0.20 in 0.12 in (2006)
Month to date precipitation 0.42 3.23  
Year to date precipitation 0.42 3.23  
Sea Level Pressure  
Sea Level Pressure 30.37 in    
Wind  
Wind Speed 3 mph (WSW)    
Max Wind Speed 14 mph    
Max Gust Speed 17 mph    
Visibility 5 miles    
Events      
T = Trace of Precipitation, MM = Missing Value Source: NWS Daily Summary

Daily Weather History Graph

Daily Weather History Graph

Search for Another Location

Airport:

Trip Planner

Search our weather history database for the weather conditions in past years. The results will help you decide how hot, cold, wet, or windy it might be!

Date:

Astronomy

Jan. 23, 2013 Rise Set
Actual Time 7:34 AM EST 6:03 PM EST
Civil Twilight 7:08 AM EST 6:29 PM EST
Nautical Twilight 6:38 AM EST 6:58 PM EST
Astronomical Twilight 6:09 AM EST 7:27 PM EST
Moon 3:16 PM EST (1/23) 4:42 AM EST (1/23)
Length of Visible Light 11h 21m
Length of Day
10h 29m
Waxing Gibbous, 89% of the Moon is Illuminated
Jan 23
Waxing Gibbous
Jan 26
Full
Feb 3
Last Quarter
Feb 10
New
Feb 17
First Quarter

Hourly Weather History & Observations

Time (EST) Temp. Windchill Dew Point Humidity Pressure Visibility Wind Dir Wind Speed Gust Speed Precip Events Conditions
12:32 AM 33.8 °F - 28.4 °F 81% 30.35 in 2.0 mi Calm Calm - N/A   Clear
12:53 AM 34.0 °F - 28.9 °F 82% 30.35 in 2.0 mi Calm Calm - N/A   Haze
1:42 AM 33.8 °F - 28.4 °F 81% 30.35 in 3.0 mi Calm Calm - N/A   Haze
1:53 AM 32.0 °F - 28.0 °F 85% 30.36 in 2.0 mi Calm Calm - N/A   Clear
2:13 AM 33.8 °F - 28.4 °F 81% 30.35 in 3.0 mi Calm Calm - N/A   Haze
2:53 AM 32.0 °F - 28.0 °F 85% 30.36 in 2.5 mi Calm Calm - N/A   Clear
3:05 AM 30.2 °F - 26.6 °F 86% 30.36 in 4.0 mi Calm Calm - N/A   Clear
3:53 AM 32.0 °F - 28.0 °F 85% 30.38 in 3.0 mi Calm Calm - N/A   Clear
4:53 AM 30.9 °F - 27.0 °F 85% 30.37 in 5.0 mi Calm Calm - N/A   Clear
5:53 AM 30.0 °F - 27.0 °F 88% 30.39 in 3.0 mi Calm Calm - N/A   Clear
6:53 AM 30.0 °F - 26.1 °F 85% 30.41 in 2.5 mi Calm Calm - N/A   Clear
7:22 AM 28.4 °F - 26.6 °F 93% 30.42 in 3.0 mi Calm Calm - N/A   Clear
7:30 AM 30.2 °F - 26.6 °F 86% 30.42 in 2.5 mi Calm Calm - N/A   Clear
7:44 AM 28.4 °F - 26.6 °F 93% 30.42 in 1.5 mi Calm Calm - N/A   Clear
7:53 AM 30.0 °F - 27.0 °F 88% 30.44 in 1.8 mi Calm Calm - N/A   Scattered Clouds
8:34 AM 33.8 °F - 30.2 °F 87% 30.44 in 3.0 mi Calm Calm - N/A   Overcast
8:53 AM 36.0 °F - 30.9 °F 82% 30.44 in 3.0 mi Calm Calm - N/A   Haze
9:53 AM 42.1 °F 39.2 °F 28.0 °F 58% 30.46 in 6.0 mi NE 4.6 mph - N/A   Haze
10:53 AM 48.0 °F - 26.1 °F 42% 30.45 in 6.0 mi Variable 5.8 mph - N/A   Haze
11:53 AM 52.0 °F - 27.0 °F 38% 30.42 in 10.0 mi Calm Calm - N/A   Clear
12:53 PM 55.9 °F - 32.0 °F 40% 30.39 in 10.0 mi NNW 5.8 mph - N/A   Clear
1:53 PM 59.0 °F - 34.0 °F 39% 30.35 in 10.0 mi West 8.1 mph - N/A   Clear
2:53 PM 61.0 °F - 36.0 °F 39% 30.32 in 9.0 mi West 9.2 mph - N/A   Clear
3:53 PM 60.1 °F - 36.0 °F 41% 30.32 in 10.0 mi SSW 8.1 mph - N/A   Clear
4:53 PM 60.1 °F - 37.0 °F 42% 30.31 in 10.0 mi WSW 6.9 mph - N/A   Clear
5:53 PM 57.0 °F - 37.9 °F 49% 30.32 in 10.0 mi WSW 4.6 mph - N/A   Clear
6:53 PM 53.1 °F - 37.9 °F 57% 30.31 in 10.0 mi SW 4.6 mph - N/A   Clear
7:53 PM 51.1 °F - 37.9 °F 61% 30.31 in 6.0 mi SW 3.5 mph - N/A   Haze
8:53 PM 50.0 °F - 39.0 °F 66% 30.31 in 6.0 mi SW 3.5 mph - N/A   Haze
9:53 PM 46.9 °F - 39.0 °F 74% 30.31 in 8.0 mi SSW 4.6 mph - N/A   Clear
10:53 PM 48.0 °F - 37.9 °F 68% 30.31 in 9.0 mi SW 3.5 mph - N/A   Scattered Clouds
11:53 PM 50.0 °F - 39.9 °F 68% 30.29 in 7.0 mi WSW 6.9 mph - N/A   Clear